Hot Springs, VA

8:29 PM EDT on June 22, 2017 (GMT -0400)
Ingalls

Weather History for KHSP - November, 2010

Change the Weather History Date:

Friday, November 19, 2010

  Actual Average Record
Temperature  
Mean Temperature 38 °F -  
Max Temperature 46 °F 44 °F 62 °F (2015)
Min Temperature 30 °F 31 °F 8 °F (2014)
Degree Days  
Heating Degree Days 27    
Moisture  
Dew Point 30 °F    
Average Humidity 79    
Maximum Humidity 100    
Minimum Humidity 53    
Precipitation  
Precipitation 0.00 in - - ()
Sea Level Pressure  
Sea Level Pressure 30.24 in    
Wind  
Wind Speed 9 mph (West)    
Max Wind Speed 16 mph    
Max Gust Speed 25 mph    
Visibility 10 miles    
Events      
Averages and records for this station are not official NWS values.
T = Trace of Precipitation, MM = Missing Value Source: NWS Daily Summary

Daily Weather History Graph

Daily Weather History Graph

Search for Another Location

Airport or City:

Trip Planner

Search our weather history database for the weather conditions in past years. The results will help you decide how hot, cold, wet, or windy it might be!

Date:

Astronomy

Nov. 19, 2010 Rise Set
Actual Time 7:04 AM EST 5:04 PM EST
Civil Twilight 6:35 AM EST 5:33 PM EST
Nautical Twilight 6:03 AM EST 6:05 PM EST
Astronomical Twilight 5:32 AM EST 6:36 PM EST
Moon 3:34 PM EST (11/19) 5:00 AM EST (11/19)
Length of Visible Light 10h 57m
Length of Day
10h 00m
Waxing Gibbous, 96% of the Moon is Illuminated
Nov 19
Waxing Gibbous
Nov 21
Full
Nov 28
Last Quarter
Dec 5
New
Dec 13
First Quarter

Hourly Weather History & Observations

Time (EST) Temp. Windchill Dew Point Humidity Pressure Visibility Wind Dir Wind Speed Gust Speed Precip Events Conditions
12:00 AM 33.8 °F 25.3 °F 32.0 °F 93% 30.19 in 10.0 mi West 11.5 mph 17.3 mph N/A   Overcast
12:20 AM 33.8 °F 25.3 °F 32.0 °F 93% 30.19 in 10.0 mi West 11.5 mph 16.1 mph N/A   Overcast
12:40 AM 33.8 °F 24.8 °F 32.0 °F 93% 30.18 in 10.0 mi West 12.7 mph - N/A   Overcast
1:00 AM 33.8 °F 23.5 °F 32.0 °F 93% 30.17 in 10.0 mi West 16.1 mph 19.6 mph N/A   Overcast
1:20 AM 33.8 °F 26.4 °F 32.0 °F 93% 30.17 in 10.0 mi WNW 9.2 mph - N/A   Overcast
1:40 AM 32.0 °F 24.8 °F 32.0 °F 100% 30.19 in 10.0 mi West 8.1 mph - N/A   Overcast
2:00 AM 32.0 °F 24.8 °F 32.0 °F 100% 30.19 in 10.0 mi WNW 8.1 mph - N/A   Overcast
2:20 AM 33.8 °F 24.8 °F 30.2 °F 87% 30.20 in 10.0 mi WNW 12.7 mph 20.7 mph N/A   Overcast
2:40 AM 33.8 °F 25.3 °F 30.2 °F 87% 30.20 in 10.0 mi WNW 11.5 mph 19.6 mph N/A   Overcast
3:00 AM 33.8 °F 26.4 °F 28.4 °F 81% 30.20 in 10.0 mi WNW 9.2 mph 25.3 mph N/A   Overcast
3:40 AM 32.0 °F 24.8 °F 30.2 °F 93% 30.20 in 10.0 mi WNW 8.1 mph - N/A   Overcast
4:00 AM 32.0 °F 26.4 °F 28.4 °F 87% 30.21 in 10.0 mi NW 5.8 mph 16.1 mph N/A   Overcast
4:20 AM 32.0 °F 25.6 °F 28.4 °F 87% 30.21 in 10.0 mi WNW 6.9 mph - N/A   Overcast
4:40 AM 32.0 °F 25.6 °F 28.4 °F 87% 30.22 in 10.0 mi NW 6.9 mph - N/A   Overcast
5:00 AM 30.2 °F 24.3 °F 28.4 °F 93% 30.22 in 10.0 mi WNW 5.8 mph - N/A   Overcast
5:20 AM 30.2 °F 24.3 °F 28.4 °F 93% 30.22 in 10.0 mi WNW 5.8 mph - N/A   Overcast
5:40 AM 30.2 °F 22.6 °F 28.4 °F 93% 30.22 in 10.0 mi WNW 8.1 mph - N/A   Mostly Cloudy
6:00 AM 30.2 °F 23.4 °F 28.4 °F 93% 30.23 in 10.0 mi WNW 6.9 mph - N/A   Mostly Cloudy
6:20 AM 30.2 °F 22.6 °F 28.4 °F 93% 30.24 in 10.0 mi West 8.1 mph - N/A   Overcast
6:40 AM 30.2 °F 23.4 °F 28.4 °F 93% 30.25 in 10.0 mi West 6.9 mph - N/A   Mostly Cloudy
7:00 AM 30.2 °F 22.6 °F 28.4 °F 93% 30.25 in 10.0 mi West 8.1 mph - N/A   Clear
7:20 AM 30.2 °F 22.6 °F 28.4 °F 93% 30.26 in 10.0 mi West 8.1 mph - N/A   Clear
7:40 AM 30.2 °F 21.9 °F 28.4 °F 93% 30.27 in 10.0 mi West 9.2 mph - N/A   Clear
8:00 AM 30.2 °F 22.6 °F 28.4 °F 93% 30.27 in 10.0 mi West 8.1 mph - N/A   Clear
8:20 AM 32.0 °F 24.2 °F 28.4 °F 87% 30.29 in 10.0 mi West 9.2 mph - N/A   Clear
8:40 AM 32.0 °F 24.2 °F 28.4 °F 87% 30.28 in 10.0 mi West 9.2 mph - N/A   Clear
9:00 AM 33.8 °F 25.8 °F 30.2 °F 87% 30.29 in 10.0 mi West 10.4 mph - N/A   Clear
9:20 AM 33.8 °F 25.8 °F 30.2 °F 87% 30.29 in 10.0 mi WNW 10.4 mph - N/A   Clear
9:40 AM 35.6 °F 28.6 °F 30.2 °F 81% 30.28 in 10.0 mi West 9.2 mph - N/A   Clear
10:00 AM 35.6 °F 29.2 °F 30.2 °F 81% 30.29 in 10.0 mi West 8.1 mph - N/A   Clear
10:20 AM 35.6 °F 29.2 °F 30.2 °F 81% 30.29 in 10.0 mi West 8.1 mph - N/A   Clear
10:40 AM 35.6 °F 29.9 °F 30.2 °F 81% 30.29 in 10.0 mi West 6.9 mph - N/A   Clear
11:00 AM 37.4 °F 30.8 °F 32.0 °F 81% 30.28 in 10.0 mi West 9.2 mph - N/A   Clear
11:20 AM 37.4 °F 32.1 °F 32.0 °F 81% 30.28 in 10.0 mi West 6.9 mph - N/A   Clear
11:40 AM 39.2 °F 35.9 °F 30.2 °F 70% 30.27 in 10.0 mi SW 4.6 mph - N/A   Clear
12:00 PM 41.0 °F 35.8 °F 30.2 °F 65% 30.27 in 10.0 mi West 8.1 mph - N/A   Clear
12:20 PM 41.0 °F 37.1 °F 30.2 °F 65% 30.27 in 10.0 mi West 5.8 mph - N/A   Clear
12:40 PM 42.8 °F 39.3 °F 28.4 °F 57% 30.26 in 10.0 mi WSW 5.8 mph - N/A   Clear
1:00 PM 42.8 °F 38.6 °F 30.2 °F 61% 30.25 in 10.0 mi West 6.9 mph - N/A   Clear
1:20 PM 42.8 °F 39.3 °F 28.4 °F 57% 30.24 in 10.0 mi WSW 5.8 mph - N/A   Clear
1:40 PM 44.6 °F 40.7 °F 28.4 °F 53% 30.24 in 10.0 mi WSW 6.9 mph - N/A   Clear
2:20 PM 44.6 °F 41.4 °F 28.4 °F 53% 30.23 in 10.0 mi NW 5.8 mph - N/A   Clear
2:40 PM 44.6 °F 42.2 °F 30.2 °F 57% 30.23 in 10.0 mi WSW 4.6 mph - N/A   Clear
3:00 PM 46.4 °F 42.9 °F 30.2 °F 53% 30.23 in 10.0 mi West 6.9 mph - N/A   Clear
3:20 PM 44.6 °F 40.7 °F 30.2 °F 57% 30.23 in 10.0 mi WSW 6.9 mph - N/A   Clear
3:40 PM 44.6 °F 39.7 °F 30.2 °F 57% 30.23 in 10.0 mi WSW 9.2 mph - N/A   Clear
4:00 PM 44.6 °F 40.2 °F 30.2 °F 57% 30.23 in 10.0 mi WSW 8.1 mph - N/A   Clear
4:20 PM 44.6 °F 39.2 °F 30.2 °F 57% 30.23 in 10.0 mi WSW 10.4 mph - N/A   Clear
4:40 PM 44.6 °F 39.2 °F 30.2 °F 57% 30.23 in 10.0 mi WSW 10.4 mph - N/A   Clear
5:00 PM 42.8 °F 37.5 °F 30.2 °F 61% 30.24 in 10.0 mi WSW 9.2 mph - N/A   Clear
5:20 PM 39.2 °F 34.2 °F 30.2 °F 70% 30.24 in 10.0 mi WSW 6.9 mph - N/A   Clear
5:40 PM 41.0 °F 38.0 °F 30.2 °F 65% 30.24 in 10.0 mi SSW 4.6 mph - N/A   Clear
6:00 PM 41.0 °F 37.1 °F 32.0 °F 70% 30.24 in 10.0 mi SSW 5.8 mph - N/A   Clear
6:20 PM 41.0 °F 37.1 °F 32.0 °F 70% 30.23 in 10.0 mi SSW 5.8 mph - N/A   Clear
6:40 PM 41.0 °F 35.8 °F 33.8 °F 76% 30.23 in 10.0 mi SSW 8.1 mph - N/A   Clear
7:00 PM 41.0 °F 35.8 °F 33.8 °F 76% 30.22 in 10.0 mi SSW 8.1 mph - N/A   Clear
7:20 PM 41.0 °F 35.2 °F 35.6 °F 81% 30.22 in 10.0 mi SSW 9.2 mph - N/A   Clear
7:40 PM 41.0 °F 35.2 °F 35.6 °F 81% 30.23 in 10.0 mi SSW 9.2 mph - N/A   Clear
8:00 PM 41.0 °F 34.7 °F 35.6 °F 81% 30.22 in 10.0 mi SSW 10.4 mph - N/A   Clear
8:20 PM 42.8 °F 37.0 °F 35.6 °F 76% 30.22 in 10.0 mi SW 10.4 mph - N/A   Clear
8:40 PM 42.8 °F 36.6 °F 35.6 °F 76% 30.22 in 10.0 mi SSW 11.5 mph 16.1 mph N/A   Clear
9:00 PM 42.8 °F 37.0 °F 35.6 °F 76% 30.22 in 10.0 mi SW 10.4 mph - N/A   Clear
9:20 PM 42.8 °F 36.6 °F 37.4 °F 81% 30.23 in 10.0 mi SW 11.5 mph 17.3 mph N/A   Clear
9:40 PM 42.8 °F 35.8 °F 37.4 °F 81% 30.23 in 10.0 mi SW 13.8 mph - N/A   Clear
10:00 PM 42.8 °F 35.4 °F 37.4 °F 81% 30.22 in 10.0 mi WSW 15.0 mph 18.4 mph N/A   Clear
10:20 PM 42.8 °F 34.8 °F 37.4 °F 81% 30.23 in 10.0 mi WSW 17.3 mph 21.9 mph N/A   Clear
10:40 PM 42.8 °F 34.3 °F 37.4 °F 81% 30.23 in 10.0 mi WSW 19.6 mph - N/A   Clear
11:00 PM 42.8 °F 34.0 °F 37.4 °F 81% 30.22 in 10.0 mi WSW 20.7 mph - N/A   Clear
11:20 PM 42.8 °F 34.3 °F 37.4 °F 81% 30.22 in 10.0 mi West 19.6 mph - N/A   Clear
11:40 PM 42.8 °F 33.5 °F 35.6 °F 76% 30.22 in 10.0 mi West 23.0 mph 28.8 mph N/A   Clear